This is the latest recevied weather packets stored in our database for station/object KD8OZS. If no packets are shown the sender has not sent any weather packets the latest 10 day(s).
| Time | Temp. | Humidity | Pressure | Rain* | Wind** | Luminosity | Snow |
|---|---|---|---|---|---|---|---|
| 1778063655 | 6.67° C | 98% | 1001 hPa | 0 mm | - | 0 W/m² | - |
| 1778063352 | 6.67° C | 98% | 1000.3 hPa | 0 mm | - | 0 W/m² | - |
| 1778063050 | 6.67° C | 98% | 1000.7 hPa | 0 mm | - | 0 W/m² | - |
| 1778062747 | 6.67° C | 98% | 1000.3 hPa | 0 mm | - | 0 W/m² | - |
| 1778062443 | 6.67° C | 98% | 1000 hPa | 0 mm | - | 0 W/m² | - |
| 1778062140 | 6.67° C | 98% | 999.6 hPa | 0 mm | - | 0 W/m² | - |
| 1778061839 | 6.67° C | 98% | 999.5 hPa | 0 mm | - | 0 W/m² | - |
| 1778061537 | 6.67° C | 98% | 1000 hPa | 0 mm | - | 0 W/m² | - |
| 1778061235 | 6.67° C | 98% | 999.9 hPa | 0 mm | - | 0 W/m² | - |
| 1778060931 | 6.67° C | 98% | 999.6 hPa | 0 mm | - | 0 W/m² | - |
| 1778060630 | 6.67° C | 98% | 999.5 hPa | 0 mm | - | 0 W/m² | - |
| 1778060327 | 6.67° C | 98% | 999.6 hPa | 1.78 mm | - | 0 W/m² | - |
| 1778060024 | 6.67° C | 98% | 1000 hPa | 1.78 mm | - | 0 W/m² | - |
| 1778059722 | 6.67° C | 98% | 1000.2 hPa | 0 mm | - | 0 W/m² | - |
| 1778059420 | 6.67° C | 98% | 1000.5 hPa | 0 mm | - | 0 W/m² | - |
| 1778059116 | 6.67° C | 98% | 1000.2 hPa | 1.27 mm | - | 0 W/m² | - |
| 1778058814 | 6.67° C | 97% | 1000.4 hPa | 1.27 mm | - | 0 W/m² | - |
| 1778058511 | 6.67° C | 97% | 1000.3 hPa | 0 mm | - | 0 W/m² | - |
| 1778058209 | 6.67° C | 97% | 1000.4 hPa | 0 mm | - | 0 W/m² | - |
| 1778057905 | 6.67° C | 97% | 1000.4 hPa | 1.78 mm | - | 0 W/m² | - |
| 1778057601 | 6.67° C | 97% | 1000.3 hPa | 3.05 mm | - | 0 W/m² | - |
| 1778057298 | 6.67° C | 97% | 1000.4 hPa | 1.27 mm | - | 0 W/m² | - |
| 1778056995 | 6.67° C | 97% | 1000.7 hPa | 1.78 mm | - | 0 W/m² | - |
| 1778056691 | 6.67° C | 97% | 1000.6 hPa | 1.78 mm | - | 0 W/m² | - |
| 1778056389 | 6.67° C | 97% | 1000.4 hPa | 0 mm | - | 0 W/m² | - |
* Rain latest hour (hover to see other rain measurements)
** Current wind speed in m/s (hover to see current wind gust speed)